Cloud_Cover
0 0 0 1 5 99 61 26 5 99 40 14 99 89 35 29 65 53 2 5 5 4 0 0 0 0 0 0 0 0 0 0 0 0 5 0 0 0 0 0 0 0 0 0
0 0 0 0 2 88 100 87 12 33 46 75 100 8 5 5 4 0 0 0 2 5 2 0 0 0 0 0 0 0 0 2 0 0 4 6 0 0 0 0 0 0 0 0
0 0 0 0 0 14 98 96 98 28 88 95 100 100 8 3 0 0 0 0 0 0 5 2 0 0 0 0 0 0 0 5 0 0 40 4 0 0 0 0 10 0 0 0
0 0 0 0 0 3 6 80 100 81 44 29 96 28 88 3 0 0 1 0 0 0 0 5 2 0 0 0 0 0 0 0 2 0 12 78 1 5 2 0 0 0 0 0
0 0 0 0 0 0 0 66 93 64 7 19 82 93 95 4 0 0 1 5 1 0 0 3 5 0 0 0 0 0 0 0 3 0 1 68 87 38 48 4 0 0 0 0
0 0 0 0 0 0 0 0 2 16 5 0 90 80 2 5 1 0 5 5 1 0 0 0 5 3 0 0 0 0 0 0 2 2 0 35 82 38 83 93 67 5 2 0
0 0 0 0 0 0 0 0 4 33 5 0 21 5 0 5 1 0 0 90 40 0 0 0 0 0 0 0 0 0 0 0 0 5 10 1 33 5 99 80 99 51 31 74
0 0 0 0 0 0 0 0 2 64 5 4 6 2 0 84 5 0 0 39 6 0 0 0 0 0 0 1 5 0 0 0 5 5 75 100 22 94 42 6 69 100 100 30
0 0 0 0 0 0 0 4 0 5 5 4 5 1 5 4 1 0 0 5 5 0 0 0 0 0 1 4 0 0 0 0 3 4 80 100 97 100 100 100 83 100 100 100
0 0 0 0 0 0 0 0 3 5 1 5 0 5 0 0 0 4 0 3 5 5 0 0 0 0 1 4 0 0 0 0 2 99 2 76 100 93 96 100 56 97 84 100
0 0 0 0 0 0 0 0 99 39 20 3 0 0 0 10 77 7 97 95 5 5 0 0 0 0 0 4 5 0 0 0 0 2 1 7 99 100 54 99 100 68 100 100
0 0 0 0 0 0 0 0 65 100 31 86 5 0 5 18 6 89 91 99 100 96 65 4 0 0 0 0 5 0 0 0 0 0 0 0 44 100 100 100 100 100 35 100
0 0 0 0 0 0 0 0 0 100 22 46 18 0 4 66 96 87 67 72 39 75 100 95 0 0 0 0 4 5 4 0 0 5 5 3 0 0 52 100 32 100 53 5
0 0 0 0 0 0 3 0 0 63 83 1 26 0 0 68 23 24 100 7 10 97 20 98 4 5 2 26 1 2 5 4 1 5 5 5 1 0 6 100 81 51 98 37
0 0 0 0 0 0 4 5 80 100 43 81 0 4 0 58 18 47 93 12 12 19 76 100 41 3 17 99 42 0 5 1 4 2 3 5 5 5 0 1 1 0 1 10
0 0 0 0 0 0 7 100 100 100 99 6 5 20 2 62 12 14 31 41 100 66 46 36 64 100 100 100 100 100 5 0 0 5 5 5 5 5 3 0 0 0 64 5
0 0 0 0 0 0 1 100 100 100 100 99 30 38 87 81 97 37 40 20 84 91 100 100 100 100 100 100 100 100 14 0 3 94 9 5 5 5 5 5 5 0 5 19
0 3 2 1 0 0 3 100 100 100 100 98 100 100 9 65 97 89 23 26 19 65 78 100 100 100 100 100 100 100 100 21 5 53 74 7 8 5 16 3 2 1 0 3
3 5 3 0 4 0 2 100 100 100 100 100 100 100 99 100 16 99 100 95 97 78 100 100 100 100 100 100 100 100 94 5 20 39 71 84 100 100 99 96 81 2 0 0
2 0 2 0 10 1 59 100 100 100 100 100 92 91 63 26 100 100 100 100 100 81 100 100 100 100 100 100 100 100 100 100 100 100 100 94 100 100 100 100 100 100 51 100
4 3 0 70 21 4 66 100 100 100 100 100 100 100 100 100 80 100 100 100 100 100 100 100 100 100 100 100 100 100 100 100 100 100 100 100 100 100 100 100 100 100 100 100
4 4 0 60 53 0 0 100 100 100 100 100 53 97 97 80 100 100 100 100 100 100 100 100 100 100 100 100 100 80 100 100 100 100 100 100 100 100 100 100 100 100 100 100
14 5 5 5 38 0 6 100 100 100 100 100 100 100 100 100 100 100 100 100 100 100 21 22 67 100 100 100 75 100 100 100 100 100 100 100 100 100 100 100 100 100 88 99
100 22 29 5 3 2 5 7 100 100 100 100 100 100 100 100 100 100 100 100 100 95 81 40 0 42 52 66 82 96 100 100 97 85 4 91 100 100 100 100 100 100 100 93
100 94 100 51 5 2 88 5 99 100 100 100 100 100 100 100 100 100 100 100 100 100 78 18 4 1 0 66 98 100 100 100 100 99 70 15 100 71 67 100 100 33 60 99
100 98 100 21 48 88 50 4 100 100 100 100 100 100 100 100 100 100 100 100 100 100 100 96 80 5 5 0 11 100 100 100 100 100 100 100 94 83 17 8 17 100 89 100